Location: Newark
(47.6522°N, 2.0836°W)
Time: 01:06:05
(UTC+00:00)

ISS - Visible Passes

Search period start: 20 September 2019 00:00
Search period end: 30 September 2019 00:00
Orbit: 411 x 421 km, 51.6° (Epoch: 20 September)

Date Brightness Start Highest point End Pass type
(mag) Time Alt. Az. Time Alt. Az. Time Alt. Az.
20 Sep -2.8 19:22:42 10° SSW 19:25:36 28° SE 19:26:21 25° ESE visible
20 Sep -0.8 20:58:51 10° WSW 20:59:17 13° WSW 20:59:17 13° WSW visible
21 Sep -2.1 18:34:55 10° S 18:37:16 18° SE 18:39:39 10° E visible
21 Sep -3.5 20:10:19 10° WSW 20:13:09 62° WSW 20:13:09 62° WSW visible
22 Sep -3.8 19:21:54 10° SW 19:25:10 62° SSE 19:26:52 26° ENE visible
22 Sep -0.9 20:58:49 10° W 20:59:46 17° WNW 20:59:46 17° WNW visible
23 Sep -3.2 18:33:35 10° SW 18:36:44 40° SE 18:39:53 10° ENE visible
23 Sep -3.2 20:10:10 10° W 20:13:20 53° NNW 20:13:20 53° NNW visible
24 Sep -3.6 19:21:33 10° WSW 19:24:52 69° NNW 19:26:48 23° ENE visible
24 Sep -0.8 20:58:45 10° WNW 20:59:42 17° WNW 20:59:42 17° WNW visible
25 Sep -3.8 18:33:00 10° WSW 18:36:19 86° SSE 18:39:39 10° ENE visible
25 Sep -2.7 20:10:05 10° WNW 20:13:04 40° NNW 20:13:04 40° NNW visible
26 Sep -2.9 19:21:24 10° W 19:24:38 45° N 19:26:24 22° NE visible
26 Sep -0.7 20:58:32 10° WNW 20:59:17 15° WNW 20:59:17 15° WNW visible
27 Sep -3.2 18:32:44 10° W 18:36:00 55° NNW 18:39:17 10° ENE visible
27 Sep -2.5 20:09:55 10° WNW 20:12:34 37° NNW 20:12:34 37° NNW visible
28 Sep -2.8 19:21:16 10° WNW 19:24:26 39° N 19:25:48 26° NE visible
28 Sep -0.5 20:58:10 10° WNW 20:58:41 14° WNW 20:58:41 14° WNW visible
29 Sep -2.8 18:32:33 10° W 18:35:45 41° N 18:38:55 10° ENE visible
29 Sep -2.4 20:09:35 10° WNW 20:11:55 37° NW 20:11:55 37° NW visible
